User: anonymous   Login
Location: Marcé
(47.5801°N, 0.3280°W)
Time: 18:50:16
(UTC+01:00)
Language:

deb Explorer IX - Orbit

View from above orbital plane
View from above orbital plane
View from above satellite
View from above satellite

Ground track
Ground track

The orbit data is extracted from the following two-line orbital elements,

1 00085U 61004C   21333.91971260  .00004041  00000-0  87931-3 0  9991
2 00085  38.7621 191.0693 0375316  79.8976 284.3886 14.22795311  6619
Epoch (UTC): 29 November 2021 22:04:23
Eccentricity: 0.0375316
inclination: 38.7621°
perigee height: 546 km
apogee height: 1086 km
right ascension of ascending node: 191.0693°
argument of perigee: 79.8976°
revolutions per day: 14.22795311
mean anomaly at epoch: 284.3886°
orbit number at epoch: 661

The dashed part of the orbit path shows where the satellite is in the earth's shadow,  

DLR